STARLINK-30150 (57621 NORAD) Tracking and Keplerian Element Data

This shows tracking and keplerian element data for the satellite.

Feedback or suggestion? Click here.




ElementValue
Catalog57621
NameSTARLINK-30150
Epoch Orbit376
Epoch Day239.16667824
Epoch Year2023
RAAN77.7424
Inclination43.0009
Eccentricity0.0001025
Argument of Perigee264.3609
Mean Anonmoly350.0347
Mean Motion15.74483714
Decay Rate-0.00890942
L11 57621U 23119V 23239.16667824 -.00890942 00000+0 -65996-2 0 9996
L22 57621 43.0009 77.7424 0001025 264.3609 350.0347 15.74483714 3760



Live tracking and technical data element details for STARLINK-30150 (NORAD 57621). STARLINK-30150 can be tracked NOW for your location showing map with azimuth and elevation plus other details from your city location.







IsCatalogInMostPopularTable: catalog: 57621, numindb: 8
Update: records affected: 1



GetName: 57621 STARLINK-30150

Hit Count: updated at: Tue, 26 Sep 2023 13:13:51 GMT